Year,Month,Day,Hour,Minute,Value (Times are PST for windspeed in km/hr)
2006,12,14,00,00,7.90
2006,12,14,00,01,6.10
2006,12,14,00,02,5.70
2006,12,14,00,03,6.40
2006,12,14,00,04,3.90
2006,12,14,00,05,2.30
2006,12,14,00,06,1.00
2006,12,14,00,07,1.30
2006,12,14,00,08,0.10
2006,12,14,00,09,0.00
2006,12,14,00,10,0.00
2006,12,14,00,11,0.00
2006,12,14,00,12,0.00
2006,12,14,00,13,0.00
2006,12,14,00,14,0.00
2006,12,14,00,15,0.00
2006,12,14,00,16,0.00
2006,12,14,00,17,0.00
2006,12,14,00,18,0.00
2006,12,14,00,19,0.00
2006,12,14,00,20,0.00
2006,12,14,00,21,0.00
2006,12,14,00,22,0.00
2006,12,14,00,23,0.00
2006,12,14,00,24,0.00
2006,12,14,00,25,0.00
2006,12,14,00,26,0.00
2006,12,14,00,27,0.00
2006,12,14,00,28,0.00
2006,12,14,00,29,0.00
2006,12,14,00,30,0.90
2006,12,14,00,31,1.50
2006,12,14,00,32,2.70
2006,12,14,00,33,2.20
2006,12,14,00,34,1.80
2006,12,14,00,35,1.00
2006,12,14,00,36,0.00
2006,12,14,00,37,0.00
2006,12,14,00,38,0.00
2006,12,14,00,39,0.00
2006,12,14,00,40,0.00
2006,12,14,00,41,0.00
2006,12,14,00,42,0.00
2006,12,14,00,43,0.00
2006,12,14,00,44,0.00
2006,12,14,00,45,0.00
2006,12,14,00,46,0.00
2006,12,14,00,47,0.00
2006,12,14,00,48,0.00
2006,12,14,00,49,0.00
2006,12,14,00,50,0.00
2006,12,14,00,51,0.00
2006,12,14,00,52,0.00
2006,12,14,00,53,0.00
2006,12,14,00,54,0.00
2006,12,14,00,55,0.00
2006,12,14,00,56,0.00
2006,12,14,00,57,0.00
2006,12,14,00,58,0.00
2006,12,14,00,59,0.00
2006,12,14,01,00,0.00
2006,12,14,01,01,0.00
2006,12,14,01,02,0.00
2006,12,14,01,03,0.00
2006,12,14,01,04,0.00
2006,12,14,01,05,0.00
2006,12,14,01,06,0.00
2006,12,14,01,07,0.00
2006,12,14,01,08,0.00
2006,12,14,01,09,0.00
2006,12,14,01,10,0.00
2006,12,14,01,11,0.00
2006,12,14,01,12,0.00
2006,12,14,01,13,0.00
2006,12,14,01,14,0.00
2006,12,14,01,15,0.00
2006,12,14,01,16,0.00
2006,12,14,01,17,0.00
2006,12,14,01,18,0.10
2006,12,14,01,19,0.10
2006,12,14,01,20,1.10
2006,12,14,01,21,1.80
2006,12,14,01,22,3.10
2006,12,14,01,23,3.10
2006,12,14,01,24,2.70
2006,12,14,01,25,1.80
2006,12,14,01,26,0.90
2006,12,14,01,27,1.60
2006,12,14,01,28,1.60
2006,12,14,01,29,2.00
2006,12,14,01,30,0.40
2006,12,14,01,31,0.00
2006,12,14,01,32,0.40
2006,12,14,01,33,0.90
2006,12,14,01,34,0.20
2006,12,14,01,35,0.30
2006,12,14,01,36,0.30
2006,12,14,01,37,0.30
2006,12,14,01,38,0.30
2006,12,14,01,39,0.60
2006,12,14,01,40,1.50
2006,12,14,01,41,1.10
2006,12,14,01,42,2.00
2006,12,14,01,43,3.30
2006,12,14,01,44,3.80
2006,12,14,01,45,4.00
2006,12,14,01,46,3.70
2006,12,14,01,47,3.30
2006,12,14,01,48,3.00
2006,12,14,01,49,3.00
2006,12,14,01,50,3.70
2006,12,14,01,51,3.60
2006,12,14,01,52,3.10
2006,12,14,01,53,3.20
2006,12,14,01,54,2.60
2006,12,14,01,55,2.40
2006,12,14,01,56,2.50
2006,12,14,01,57,2.50
2006,12,14,01,58,2.10
2006,12,14,01,59,0.20
2006,12,14,02,00,0.00
2006,12,14,02,01,0.00
2006,12,14,02,02,0.00
2006,12,14,02,03,0.00
2006,12,14,02,04,0.00
2006,12,14,02,05,0.00
2006,12,14,02,06,0.00
2006,12,14,02,07,0.00
2006,12,14,02,08,0.00
2006,12,14,02,09,0.00
2006,12,14,02,10,0.00
2006,12,14,02,11,0.30
2006,12,14,02,12,3.10
2006,12,14,02,13,2.50
2006,12,14,02,14,2.90
2006,12,14,02,15,0.60
2006,12,14,02,16,0.00
2006,12,14,02,17,0.00
2006,12,14,02,18,0.00
2006,12,14,02,19,0.00
2006,12,14,02,20,0.00
2006,12,14,02,21,0.00
2006,12,14,02,22,0.00
2006,12,14,02,23,0.00
2006,12,14,02,24,0.00
2006,12,14,02,25,0.00
2006,12,14,02,26,0.20
2006,12,14,02,27,2.40
2006,12,14,02,28,3.20
2006,12,14,02,29,5.30
2006,12,14,02,30,5.10
2006,12,14,02,31,2.60
2006,12,14,02,32,2.40
2006,12,14,02,33,3.80
2006,12,14,02,34,2.20
2006,12,14,02,35,3.10
2006,12,14,02,36,3.30
2006,12,14,02,37,3.10
2006,12,14,02,38,3.30
2006,12,14,02,39,2.60
2006,12,14,02,40,1.80
2006,12,14,02,41,1.90
2006,12,14,02,42,0.40
2006,12,14,02,43,0.00
2006,12,14,02,44,0.00
2006,12,14,02,45,0.00
2006,12,14,02,46,0.00
2006,12,14,02,47,0.00
2006,12,14,02,48,0.00
2006,12,14,02,49,0.00
2006,12,14,02,50,0.00
2006,12,14,02,51,0.00
2006,12,14,02,52,0.00
2006,12,14,02,53,0.00
2006,12,14,02,54,0.00
2006,12,14,02,55,0.10
2006,12,14,02,56,0.00
2006,12,14,02,57,0.00
2006,12,14,02,58,0.00
2006,12,14,02,59,0.00
2006,12,14,03,00,0.10
2006,12,14,03,01,0.00
2006,12,14,03,02,0.00
2006,12,14,03,03,0.00
2006,12,14,03,04,0.50
2006,12,14,03,05,1.30
2006,12,14,03,06,1.80
2006,12,14,03,07,0.50
2006,12,14,03,08,0.00
2006,12,14,03,09,0.60
2006,12,14,03,10,0.00
2006,12,14,03,11,0.00
2006,12,14,03,12,0.10
2006,12,14,03,13,0.10
2006,12,14,03,14,0.30
2006,12,14,03,15,0.10
2006,12,14,03,16,0.40
2006,12,14,03,17,0.00
2006,12,14,03,18,0.00
2006,12,14,03,19,0.00
2006,12,14,03,20,0.00
2006,12,14,03,21,0.00
2006,12,14,03,22,0.00
2006,12,14,03,23,0.00
2006,12,14,03,24,0.00
2006,12,14,03,25,0.00
2006,12,14,03,26,0.00
2006,12,14,03,27,0.00
2006,12,14,03,28,0.40
2006,12,14,03,29,0.20
2006,12,14,03,30,0.00
2006,12,14,03,31,0.30
2006,12,14,03,32,0.00
2006,12,14,03,33,0.20
2006,12,14,03,34,1.70
2006,12,14,03,35,0.90
2006,12,14,03,36,0.00
2006,12,14,03,37,0.10
2006,12,14,03,38,0.30
2006,12,14,03,39,0.00
2006,12,14,03,40,0.00
2006,12,14,03,41,0.10
2006,12,14,03,42,0.10
2006,12,14,03,43,0.00
2006,12,14,03,44,0.00
2006,12,14,03,45,0.00
2006,12,14,03,46,2.30
2006,12,14,03,47,3.60
2006,12,14,03,48,3.10
2006,12,14,03,49,1.70
2006,12,14,03,50,1.10
2006,12,14,03,51,0.80
2006,12,14,03,52,2.20
2006,12,14,03,53,3.10
2006,12,14,03,54,3.20
2006,12,14,03,55,3.40
2006,12,14,03,56,2.40
2006,12,14,03,57,4.10
2006,12,14,03,58,4.20
2006,12,14,03,59,3.60
2006,12,14,04,00,0.40
2006,12,14,04,01,1.00
2006,12,14,04,02,0.10
2006,12,14,04,03,2.00
2006,12,14,04,04,3.80
2006,12,14,04,05,1.90
2006,12,14,04,06,0.10
2006,12,14,04,07,0.80
2006,12,14,04,08,1.10
2006,12,14,04,09,1.60
2006,12,14,04,10,1.90
2006,12,14,04,11,0.80
2006,12,14,04,12,1.50
2006,12,14,04,13,2.00
2006,12,14,04,14,1.50
2006,12,14,04,15,2.20
2006,12,14,04,16,3.70
2006,12,14,04,17,1.10
2006,12,14,04,18,0.40
2006,12,14,04,19,2.00
2006,12,14,04,20,0.10
2006,12,14,04,21,1.70
2006,12,14,04,22,2.10
2006,12,14,04,23,0.90
2006,12,14,04,24,2.00
2006,12,14,04,25,4.60
2006,12,14,04,26,3.20
2006,12,14,04,27,2.60
2006,12,14,04,28,1.80
2006,12,14,04,29,5.40
2006,12,14,04,30,2.70
2006,12,14,04,31,2.70
2006,12,14,04,32,5.00
2006,12,14,04,33,5.80
2006,12,14,04,34,4.80
2006,12,14,04,35,9.90
2006,12,14,04,36,3.60
2006,12,14,04,37,5.30
2006,12,14,04,38,6.00
2006,12,14,04,39,5.60
2006,12,14,04,40,5.10
2006,12,14,04,41,8.00
2006,12,14,04,42,3.60
2006,12,14,04,43,5.80
2006,12,14,04,44,4.20
2006,12,14,04,45,5.30
2006,12,14,04,46,4.10
2006,12,14,04,47,2.90
2006,12,14,04,48,1.40
2006,12,14,04,49,5.40
2006,12,14,04,50,5.90
2006,12,14,04,51,8.70
2006,12,14,04,52,8.10
2006,12,14,04,53,6.30
2006,12,14,04,54,6.10
2006,12,14,04,55,4.80
2006,12,14,04,56,4.10
2006,12,14,04,57,5.00
2006,12,14,04,58,6.40
2006,12,14,04,59,4.20
2006,12,14,05,00,5.10
2006,12,14,05,01,5.70
2006,12,14,05,02,3.40
2006,12,14,05,03,4.10
2006,12,14,05,04,5.10
2006,12,14,05,05,8.40
2006,12,14,05,06,3.90
2006,12,14,05,07,4.70
2006,12,14,05,08,6.80
2006,12,14,05,09,6.20
2006,12,14,05,10,8.20
2006,12,14,05,11,7.70
2006,12,14,05,12,7.00
2006,12,14,05,13,8.30
2006,12,14,05,14,7.00
2006,12,14,05,15,7.20
2006,12,14,05,16,5.70
2006,12,14,05,17,6.20
2006,12,14,05,18,6.90
2006,12,14,05,19,7.40
2006,12,14,05,20,8.10
2006,12,14,05,21,5.20
2006,12,14,05,22,4.80
2006,12,14,05,23,4.80
2006,12,14,05,24,3.00
2006,12,14,05,25,5.60
2006,12,14,05,26,8.10
2006,12,14,05,27,8.50
2006,12,14,05,28,6.70
2006,12,14,05,29,5.60
2006,12,14,05,30,8.30
2006,12,14,05,31,6.20
2006,12,14,05,32,4.90
2006,12,14,05,33,7.40
2006,12,14,05,34,9.20
2006,12,14,05,35,11.30
2006,12,14,05,36,9.10
2006,12,14,05,37,5.50
2006,12,14,05,38,6.30
2006,12,14,05,39,7.20
2006,12,14,05,40,7.30
2006,12,14,05,41,8.40
2006,12,14,05,42,6.10
2006,12,14,05,43,8.50
2006,12,14,05,44,5.00
2006,12,14,05,45,4.70
2006,12,14,05,46,6.10
2006,12,14,05,47,8.30
2006,12,14,05,48,6.10
2006,12,14,05,49,6.40
2006,12,14,05,50,6.60
2006,12,14,05,51,3.80
2006,12,14,05,52,7.10
2006,12,14,05,53,8.10
2006,12,14,05,54,12.20
2006,12,14,05,55,10.60
2006,12,14,05,56,9.20
2006,12,14,05,57,8.00
2006,12,14,05,58,5.90
2006,12,14,05,59,6.50
2006,12,14,06,00,6.90
2006,12,14,06,01,6.80
2006,12,14,06,02,8.40
2006,12,14,06,03,5.50
2006,12,14,06,04,5.30
2006,12,14,06,05,6.40
2006,12,14,06,06,7.60
2006,12,14,06,07,11.50
2006,12,14,06,08,7.30
2006,12,14,06,09,6.00
2006,12,14,06,10,7.00
2006,12,14,06,11,5.50
2006,12,14,06,12,4.50
2006,12,14,06,13,6.70
2006,12,14,06,14,9.60
2006,12,14,06,15,7.00
2006,12,14,06,16,8.00
2006,12,14,06,17,5.50
2006,12,14,06,18,7.00
2006,12,14,06,19,9.20
2006,12,14,06,20,6.90
2006,12,14,06,21,2.70
2006,12,14,06,22,3.20
2006,12,14,06,23,3.20
2006,12,14,06,24,3.20
2006,12,14,06,25,3.20
2006,12,14,06,26,3.20
2006,12,14,06,27,2.20
2006,12,14,06,28,1.60
2006,12,14,06,29,4.00
2006,12,14,06,30,6.50
2006,12,14,06,31,4.50
2006,12,14,06,32,6.90
2006,12,14,06,33,6.90
2006,12,14,06,34,6.70
2006,12,14,06,35,6.30
2006,12,14,06,36,7.50
2006,12,14,06,37,6.40
2006,12,14,06,38,7.10
2006,12,14,06,39,5.80
2006,12,14,06,40,6.80
2006,12,14,06,41,4.80
2006,12,14,06,42,7.40
2006,12,14,06,43,6.90
2006,12,14,06,44,3.60
2006,12,14,06,45,4.80
2006,12,14,06,46,8.10
2006,12,14,06,47,8.10
2006,12,14,06,48,6.40
2006,12,14,06,49,6.40
2006,12,14,06,50,6.40
2006,12,14,06,51,5.10
2006,12,14,06,52,2.40
2006,12,14,06,53,5.80
2006,12,14,06,54,6.70
2006,12,14,06,55,6.20
2006,12,14,06,56,5.60
2006,12,14,06,57,5.70
2006,12,14,06,58,3.60
2006,12,14,06,59,4.10
2006,12,14,07,00,6.60
2006,12,14,07,01,4.80
2006,12,14,07,02,5.70
2006,12,14,07,03,5.70
2006,12,14,07,04,4.80
2006,12,14,07,05,4.20
2006,12,14,07,06,3.90
2006,12,14,07,07,7.40
2006,12,14,07,08,5.40
2006,12,14,07,09,5.40
2006,12,14,07,10,6.20
2006,12,14,07,11,4.20
2006,12,14,07,12,4.60
2006,12,14,07,13,5.00
2006,12,14,07,14,6.10
2006,12,14,07,15,7.30
2006,12,14,07,16,6.20
2006,12,14,07,17,4.10
2006,12,14,07,18,2.90
2006,12,14,07,19,4.50
2006,12,14,07,20,6.60
2006,12,14,07,21,5.70
2006,12,14,07,22,5.20
2006,12,14,07,23,7.30
2006,12,14,07,24,6.30
2006,12,14,07,25,6.30
2006,12,14,07,26,8.50
2006,12,14,07,27,8.10
2006,12,14,07,28,7.50
2006,12,14,07,29,7.90
2006,12,14,07,30,7.10
2006,12,14,07,31,2.30
2006,12,14,07,32,2.70
2006,12,14,07,33,4.60
2006,12,14,07,34,5.80
2006,12,14,07,35,4.90
2006,12,14,07,36,4.70
2006,12,14,07,37,5.20
2006,12,14,07,38,7.30
2006,12,14,07,39,4.70
2006,12,14,07,40,4.90
2006,12,14,07,41,3.20
2006,12,14,07,42,3.80
2006,12,14,07,43,5.80
2006,12,14,07,44,5.90
2006,12,14,07,45,4.80
2006,12,14,07,46,9.60
2006,12,14,07,47,8.60
2006,12,14,07,48,9.30
2006,12,14,07,49,12.10
2006,12,14,07,50,8.30
2006,12,14,07,51,8.30
2006,12,14,07,52,11.00
2006,12,14,07,53,13.80
2006,12,14,07,54,10.90
2006,12,14,07,55,7.40
2006,12,14,07,56,10.40
2006,12,14,07,57,8.50
2006,12,14,07,58,16.20
2006,12,14,07,59,6.30
2006,12,14,08,00,3.40
2006,12,14,08,01,4.80
2006,12,14,08,02,5.20
2006,12,14,08,03,5.70
2006,12,14,08,04,13.30
2006,12,14,08,05,8.10
2006,12,14,08,06,6.70
2006,12,14,08,07,5.80
2006,12,14,08,08,11.30
2006,12,14,08,09,10.90
2006,12,14,08,10,8.50
2006,12,14,08,11,9.30
2006,12,14,08,12,10.50
2006,12,14,08,13,10.30
2006,12,14,08,14,10.60
2006,12,14,08,15,12.70
2006,12,14,08,16,11.10
2006,12,14,08,17,9.00
2006,12,14,08,18,8.80
2006,12,14,08,19,12.90
2006,12,14,08,20,4.80
2006,12,14,08,21,8.50
2006,12,14,08,22,8.30
2006,12,14,08,23,8.60
2006,12,14,08,24,8.10
2006,12,14,08,25,6.40
2006,12,14,08,26,15.40
2006,12,14,08,27,8.40
2006,12,14,08,28,9.70
2006,12,14,08,29,7.20
2006,12,14,08,30,7.70
2006,12,14,08,31,8.70
2006,12,14,08,32,9.60
2006,12,14,08,33,9.60
2006,12,14,08,34,9.60
2006,12,14,08,35,9.60
2006,12,14,08,36,9.60
2006,12,14,08,37,7.10
2006,12,14,08,38,7.80
2006,12,14,08,39,12.40
2006,12,14,08,40,4.90
2006,12,14,08,41,5.50
2006,12,14,08,42,10.20
2006,12,14,08,43,10.90
2006,12,14,08,44,12.70
2006,12,14,08,45,9.50
2006,12,14,08,46,10.20
2006,12,14,08,47,11.70
2006,12,14,08,48,14.40
2006,12,14,08,49,11.00
2006,12,14,08,50,8.40
2006,12,14,08,51,9.00
2006,12,14,08,52,10.90
2006,12,14,08,53,7.20
2006,12,14,08,54,8.70
2006,12,14,08,55,14.60
2006,12,14,08,56,14.50
2006,12,14,08,57,10.10
2006,12,14,08,58,8.70
2006,12,14,08,59,9.20
2006,12,14,09,00,10.60
2006,12,14,09,01,5.90
2006,12,14,09,02,10.00
2006,12,14,09,03,9.20
2006,12,14,09,04,9.60
2006,12,14,09,05,9.60
2006,12,14,09,06,9.40
2006,12,14,09,07,6.80
2006,12,14,09,08,8.70
2006,12,14,09,09,9.20
2006,12,14,09,10,7.40
2006,12,14,09,11,10.70
2006,12,14,09,12,8.00
2006,12,14,09,13,7.10
2006,12,14,09,14,9.30
2006,12,14,09,15,9.60
2006,12,14,09,16,9.40
2006,12,14,09,17,9.80
2006,12,14,09,18,11.10
2006,12,14,09,19,8.20
2006,12,14,09,20,10.30
2006,12,14,09,21,11.80
2006,12,14,09,22,10.80
2006,12,14,09,23,10.20
2006,12,14,09,24,12.70
2006,12,14,09,25,5.20
2006,12,14,09,26,13.50
2006,12,14,09,27,8.80
2006,12,14,09,28,8.90
2006,12,14,09,29,12.70
2006,12,14,09,30,11.90
2006,12,14,09,31,14.60
2006,12,14,09,32,12.80
2006,12,14,09,33,8.60
2006,12,14,09,34,8.50
2006,12,14,09,35,10.90
2006,12,14,09,36,9.20
2006,12,14,09,37,6.90
2006,12,14,09,38,9.90
2006,12,14,09,39,6.90
2006,12,14,09,40,11.60
2006,12,14,09,41,12.50
2006,12,14,09,42,14.40
2006,12,14,09,43,11.90
2006,12,14,09,44,14.10
2006,12,14,09,45,11.90
2006,12,14,09,46,15.10
2006,12,14,09,47,10.30
2006,12,14,09,48,8.90
2006,12,14,09,49,11.40
2006,12,14,09,50,12.70
2006,12,14,09,51,9.30
2006,12,14,09,52,10.90
2006,12,14,09,53,12.50
2006,12,14,09,54,7.20
2006,12,14,09,55,7.20
2006,12,14,09,56,10.60
2006,12,14,09,57,9.70
2006,12,14,09,58,11.80
2006,12,14,09,59,12.50
2006,12,14,10,00,13.20
2006,12,14,10,01,8.10
2006,12,14,10,02,9.20
2006,12,14,10,03,20.10
2006,12,14,10,04,13.10
2006,12,14,10,05,14.50
2006,12,14,10,06,17.60
2006,12,14,10,07,14.50
2006,12,14,10,08,10.10
2006,12,14,10,09,13.70
2006,12,14,10,10,15.10
2006,12,14,10,11,11.90
2006,12,14,10,12,11.40
2006,12,14,10,13,20.10
2006,12,14,10,14,19.30
2006,12,14,10,15,19.30
2006,12,14,10,16,19.30
2006,12,14,10,17,18.50
2006,12,14,10,18,8.80
2006,12,14,10,19,7.40
2006,12,14,10,20,9.90
2006,12,14,10,21,15.20
2006,12,14,10,22,13.20
2006,12,14,10,23,8.40
2006,12,14,10,24,13.00
2006,12,14,10,25,16.30
2006,12,14,10,26,10.80
2006,12,14,10,27,12.10
2006,12,14,10,28,16.40
2006,12,14,10,29,12.10
2006,12,14,10,30,16.90
2006,12,14,10,31,10.70
2006,12,14,10,32,12.70
2006,12,14,10,33,10.70
2006,12,14,10,34,11.10
2006,12,14,10,35,12.10
2006,12,14,10,36,7.20
2006,12,14,10,37,9.40
2006,12,14,10,38,14.00
2006,12,14,10,39,12.70
2006,12,14,10,40,9.20
2006,12,14,10,41,21.60
2006,12,14,10,42,14.70
2006,12,14,10,43,9.80
2006,12,14,10,44,7.80
2006,12,14,10,45,13.70
2006,12,14,10,46,15.90
2006,12,14,10,47,12.10
2006,12,14,10,48,11.60
2006,12,14,10,49,5.70
2006,12,14,10,50,8.80
2006,12,14,10,51,12.10
2006,12,14,10,52,8.50
2006,12,14,10,53,7.80
2006,12,14,10,54,9.90
2006,12,14,10,55,10.70
2006,12,14,10,56,9.40
2006,12,14,10,57,5.70
2006,12,14,10,58,7.10
2006,12,14,10,59,13.20
2006,12,14,11,00,9.70
2006,12,14,11,01,6.90
2006,12,14,11,02,11.30
2006,12,14,11,03,8.10
2006,12,14,11,04,13.30
2006,12,14,11,05,9.40
2006,12,14,11,06,11.60
2006,12,14,11,07,10.20
2006,12,14,11,08,10.40
2006,12,14,11,09,12.70
2006,12,14,11,10,14.40
2006,12,14,11,11,12.60
2006,12,14,11,12,8.30
2006,12,14,11,13,15.00
2006,12,14,11,14,12.10
2006,12,14,11,15,8.50
2006,12,14,11,16,10.10
2006,12,14,11,17,7.30
2006,12,14,11,18,11.30
2006,12,14,11,19,12.90
2006,12,14,11,20,9.00
2006,12,14,11,21,9.30
2006,12,14,11,22,7.30
2006,12,14,11,23,11.50
2006,12,14,11,24,9.60
2006,12,14,11,25,12.70
2006,12,14,11,26,11.60
2006,12,14,11,27,11.70
2006,12,14,11,28,7.80
2006,12,14,11,29,8.80
2006,12,14,11,30,13.40
2006,12,14,11,31,10.10
2006,12,14,11,32,8.80
2006,12,14,11,33,7.90
2006,12,14,11,34,6.90
2006,12,14,11,35,8.70
2006,12,14,11,36,8.00
2006,12,14,11,37,8.90
2006,12,14,11,38,8.70
2006,12,14,11,39,10.70
2006,12,14,11,40,10.00
2006,12,14,11,41,12.60
2006,12,14,11,42,14.50
2006,12,14,11,43,11.80
2006,12,14,11,44,10.40
2006,12,14,11,45,13.50
2006,12,14,11,46,8.30
2006,12,14,11,47,9.40
2006,12,14,11,48,10.40
2006,12,14,11,49,9.40
2006,12,14,11,50,10.10
2006,12,14,11,51,7.40
2006,12,14,11,52,7.90
2006,12,14,11,53,6.50
2006,12,14,11,54,3.50
2006,12,14,11,55,7.10
2006,12,14,11,56,4.20
2006,12,14,11,57,5.00
2006,12,14,11,58,7.40
2006,12,14,11,59,7.30
2006,12,14,12,00,5.70
2006,12,14,12,01,9.80
2006,12,14,12,02,8.00
2006,12,14,12,03,9.20
2006,12,14,12,04,8.30
2006,12,14,12,05,11.00
2006,12,14,12,06,9.80
2006,12,14,12,07,4.20
2006,12,14,12,08,5.10
2006,12,14,12,09,7.70
2006,12,14,12,10,2.90
2006,12,14,12,11,6.00
2006,12,14,12,12,6.90
2006,12,14,12,13,7.80
2006,12,14,12,14,7.30
2006,12,14,12,15,8.40
2006,12,14,12,16,9.20
2006,12,14,12,17,10.10
2006,12,14,12,18,12.90
2006,12,14,12,19,5.30
2006,12,14,12,20,13.90
2006,12,14,12,21,15.20
2006,12,14,12,22,13.90
2006,12,14,12,23,14.30
2006,12,14,12,24,8.50
2006,12,14,12,25,6.10
2006,12,14,12,26,8.30
2006,12,14,12,27,7.30
2006,12,14,12,28,14.30
2006,12,14,12,29,10.30
2006,12,14,12,30,4.80
2006,12,14,12,31,7.50
2006,12,14,12,32,7.00
2006,12,14,12,33,5.50
2006,12,14,12,34,10.60
2006,12,14,12,35,14.70
2006,12,14,12,36,4.50
2006,12,14,12,37,10.20
2006,12,14,12,38,6.40
2006,12,14,12,39,9.60
2006,12,14,12,40,5.40
2006,12,14,12,41,6.00
2006,12,14,12,42,5.50
2006,12,14,12,43,6.90
2006,12,14,12,44,3.70
2006,12,14,12,45,10.00
2006,12,14,12,46,7.10
2006,12,14,12,47,7.50
2006,12,14,12,48,4.80
2006,12,14,12,49,5.80
2006,12,14,12,50,6.60
2006,12,14,12,51,4.80
2006,12,14,12,52,5.40
2006,12,14,12,53,5.80
2006,12,14,12,54,5.20
2006,12,14,12,55,6.30
2006,12,14,12,56,4.60
2006,12,14,12,57,7.30
2006,12,14,12,58,5.00
2006,12,14,12,59,5.20
2006,12,14,13,00,2.30
2006,12,14,13,01,4.20
2006,12,14,13,02,7.60
2006,12,14,13,03,5.50
2006,12,14,13,04,9.40
2006,12,14,13,05,5.50
2006,12,14,13,06,8.10
2006,12,14,13,07,9.30
2006,12,14,13,08,7.30
2006,12,14,13,09,7.40
2006,12,14,13,10,5.60
2006,12,14,13,11,6.40
2006,12,14,13,12,8.30
2006,12,14,13,13,4.60
2006,12,14,13,14,7.60
2006,12,14,13,15,5.00
2006,12,14,13,16,3.80
2006,12,14,13,17,5.20
2006,12,14,13,18,8.30
2006,12,14,13,19,5.50
2006,12,14,13,20,7.10
2006,12,14,13,21,6.80
2006,12,14,13,22,3.50
2006,12,14,13,23,4.70
2006,12,14,13,24,8.20
2006,12,14,13,25,7.60
2006,12,14,13,26,0.30
2006,12,14,13,27,0.00
2006,12,14,13,28,0.00
2006,12,14,13,29,0.00
2006,12,14,13,30,4.00
2006,12,14,13,31,3.20
2006,12,14,13,32,1.70
2006,12,14,13,33,3.00
2006,12,14,13,34,4.70
2006,12,14,13,35,4.30
2006,12,14,13,36,3.40
2006,12,14,13,37,4.60
2006,12,14,13,38,7.80
2006,12,14,13,39,8.50
2006,12,14,13,40,9.20
2006,12,14,13,41,10.80
2006,12,14,13,42,11.40
2006,12,14,13,43,11.80
2006,12,14,13,44,11.50
2006,12,14,13,45,9.20
2006,12,14,13,46,9.40
2006,12,14,13,47,6.80
2006,12,14,13,48,7.40
2006,12,14,13,49,6.20
2006,12,14,13,50,5.00
2006,12,14,13,51,5.10
2006,12,14,13,52,4.10
2006,12,14,13,53,4.90
2006,12,14,13,54,1.60
2006,12,14,13,55,1.60
2006,12,14,13,56,1.40
2006,12,14,13,57,3.80
2006,12,14,13,58,2.20
2006,12,14,13,59,1.10
2006,12,14,14,00,0.00
2006,12,14,14,01,0.00
2006,12,14,14,02,1.30
2006,12,14,14,03,2.40
2006,12,14,14,04,3.50
2006,12,14,14,05,5.20
2006,12,14,14,06,5.60
2006,12,14,14,07,2.60
2006,12,14,14,08,3.90
2006,12,14,14,09,5.20
2006,12,14,14,10,3.00
2006,12,14,14,11,0.80
2006,12,14,14,12,3.40
2006,12,14,14,13,0.80
2006,12,14,14,14,3.70
2006,12,14,14,15,3.10
2006,12,14,14,16,6.20
2006,12,14,14,17,3.40
2006,12,14,14,18,3.80
2006,12,14,14,19,7.00
2006,12,14,14,20,6.80
2006,12,14,14,21,6.90
2006,12,14,14,22,7.40
2006,12,14,14,23,7.50
2006,12,14,14,24,5.70
2006,12,14,14,25,6.40
2006,12,14,14,26,6.60
2006,12,14,14,27,8.10
2006,12,14,14,28,10.90
2006,12,14,14,29,8.00
2006,12,14,14,30,5.20
2006,12,14,14,31,5.00
2006,12,14,14,32,8.70
2006,12,14,14,33,3.10
2006,12,14,14,34,5.90
2006,12,14,14,35,5.90
2006,12,14,14,36,7.50
2006,12,14,14,37,5.70
2006,12,14,14,38,4.40
2006,12,14,14,39,4.80
2006,12,14,14,40,4.80
2006,12,14,14,41,4.80
2006,12,14,14,42,3.40
2006,12,14,14,43,5.20
2006,12,14,14,44,5.70
2006,12,14,14,45,11.00
2006,12,14,14,46,11.10
2006,12,14,14,47,4.20
2006,12,14,14,48,9.00
2006,12,14,14,49,10.90
2006,12,14,14,50,9.60
2006,12,14,14,51,10.70
2006,12,14,14,52,16.40
2006,12,14,14,53,15.20
2006,12,14,14,54,9.70
2006,12,14,14,55,7.50
2006,12,14,14,56,10.70
2006,12,14,14,57,8.40
2006,12,14,14,58,7.50
2006,12,14,14,59,8.60
2006,12,14,15,00,9.90
2006,12,14,15,01,8.70
2006,12,14,15,02,11.80
2006,12,14,15,03,12.20
2006,12,14,15,04,10.40
2006,12,14,15,05,12.70
2006,12,14,15,06,10.70
2006,12,14,15,07,4.80
2006,12,14,15,08,10.40
2006,12,14,15,09,9.50
2006,12,14,15,10,6.20
2006,12,14,15,11,6.80
2006,12,14,15,12,7.90
2006,12,14,15,13,6.20
2006,12,14,15,14,5.00
2006,12,14,15,15,7.40
2006,12,14,15,16,8.00
2006,12,14,15,17,8.90
2006,12,14,15,18,11.80
2006,12,14,15,19,14.50
2006,12,14,15,20,8.70
2006,12,14,15,21,7.80
2006,12,14,15,22,10.40
2006,12,14,15,23,5.80
2006,12,14,15,24,7.20
2006,12,14,15,25,6.10
2006,12,14,15,26,6.90
2006,12,14,15,27,4.10
2006,12,14,15,28,4.40
2006,12,14,15,29,7.10
2006,12,14,15,30,5.90
2006,12,14,15,31,4.70
2006,12,14,15,32,7.40
2006,12,14,15,33,6.40
2006,12,14,15,34,7.30
2006,12,14,15,35,5.60
2006,12,14,15,36,10.00
2006,12,14,15,37,7.80
2006,12,14,15,38,9.40
2006,12,14,15,39,8.50
2006,12,14,15,40,9.80
2006,12,14,15,41,4.70
2006,12,14,15,42,4.60
2006,12,14,15,43,5.00
2006,12,14,15,44,5.90
2006,12,14,15,45,6.90
2006,12,14,15,46,7.50
2006,12,14,15,47,4.80
2006,12,14,15,48,4.80
2006,12,14,15,49,6.00
2006,12,14,15,50,6.50
2006,12,14,15,51,4.20
2006,12,14,15,52,7.00
2006,12,14,15,53,5.00
2006,12,14,15,54,5.00
2006,12,14,15,55,4.40
2006,12,14,15,56,3.90
2006,12,14,15,57,4.20
2006,12,14,15,58,4.00
2006,12,14,15,59,2.00
2006,12,14,16,00,5.70
2006,12,14,16,01,2.80
2006,12,14,16,02,2.30
2006,12,14,16,03,1.80
2006,12,14,16,04,0.10
2006,12,14,16,05,2.40
2006,12,14,16,06,1.90
2006,12,14,16,07,1.10
2006,12,14,16,08,2.60
2006,12,14,16,09,2.00
2006,12,14,16,10,2.70
2006,12,14,16,11,2.60
2006,12,14,16,12,6.30
2006,12,14,16,13,4.90
2006,12,14,16,14,4.80
2006,12,14,16,15,5.10
2006,12,14,16,16,4.80
2006,12,14,16,17,4.80
2006,12,14,16,18,3.60
2006,12,14,16,19,1.60
2006,12,14,16,20,2.00
2006,12,14,16,21,0.70
2006,12,14,16,22,1.40
2006,12,14,16,23,2.50
2006,12,14,16,24,4.90
2006,12,14,16,25,5.50
2006,12,14,16,26,8.00
2006,12,14,16,27,7.80
2006,12,14,16,28,6.10
2006,12,14,16,29,6.40
2006,12,14,16,30,5.90
2006,12,14,16,31,6.90
2006,12,14,16,32,7.70
2006,12,14,16,33,8.10
2006,12,14,16,34,6.40
2006,12,14,16,35,6.40
2006,12,14,16,36,6.40
2006,12,14,16,37,6.40
2006,12,14,16,38,6.40
2006,12,14,16,39,6.40
2006,12,14,16,40,6.40
2006,12,14,16,41,5.60
2006,12,14,16,42,4.80
2006,12,14,16,43,7.30
2006,12,14,16,44,6.90
2006,12,14,16,45,7.40
2006,12,14,16,46,6.40
2006,12,14,16,47,6.60
2006,12,14,16,48,6.50
2006,12,14,16,49,8.30
2006,12,14,16,50,3.90
2006,12,14,16,51,6.30
2006,12,14,16,52,5.50
2006,12,14,16,53,3.60
2006,12,14,16,54,7.30
2006,12,14,16,55,9.60
2006,12,14,16,56,5.10
2006,12,14,16,57,4.30
2006,12,14,16,58,5.30
2006,12,14,16,59,6.30
2006,12,14,17,00,3.10
2006,12,14,17,01,6.70
2006,12,14,17,02,5.50
2006,12,14,17,03,5.00
2006,12,14,17,04,3.90
2006,12,14,17,05,7.50
2006,12,14,17,06,5.60
2006,12,14,17,07,2.90
2006,12,14,17,08,3.90
2006,12,14,17,09,7.60
2006,12,14,17,10,4.70
2006,12,14,17,11,4.10
2006,12,14,17,12,5.20
2006,12,14,17,13,4.10
2006,12,14,17,14,4.10
2006,12,14,17,15,2.70
2006,12,14,17,16,4.50
2006,12,14,17,17,6.10
2006,12,14,17,18,8.10
2006,12,14,17,19,4.80
2006,12,14,17,20,3.90
2006,12,14,17,21,5.60
2006,12,14,17,22,8.10
2006,12,14,17,23,11.50
2006,12,14,17,24,9.60
2006,12,14,17,25,7.10
2006,12,14,17,26,2.50
2006,12,14,17,27,6.30
2006,12,14,17,28,5.20
2006,12,14,17,29,2.80
2006,12,14,17,30,6.70
2006,12,14,17,31,9.00
2006,12,14,17,32,4.80
2006,12,14,17,33,6.30
2006,12,14,17,34,5.60
2006,12,14,17,35,6.40
2006,12,14,17,36,3.30
2006,12,14,17,37,2.20
2006,12,14,17,38,8.90
2006,12,14,17,39,10.00
2006,12,14,17,40,4.90
2006,12,14,17,41,5.00
2006,12,14,17,42,6.00
2006,12,14,17,43,6.50
2006,12,14,17,44,7.20
2006,12,14,17,45,6.10
2006,12,14,17,46,3.80
2006,12,14,17,47,5.30
2006,12,14,17,48,3.80
2006,12,14,17,49,6.80
2006,12,14,17,50,3.70
2006,12,14,17,51,3.80
2006,12,14,17,52,8.00
2006,12,14,17,53,5.80
2006,12,14,17,54,5.90
2006,12,14,17,55,6.00
2006,12,14,17,56,6.10
2006,12,14,17,57,3.60
2006,12,14,17,58,6.90
2006,12,14,17,59,9.60